Weather observations for the past three days for
Yuma, Marine Corps Air Station
Imperial (Metric)
Date Time (mst) Wind (mph) Vis. (mi.) Weather Sky Cond. Temperature (ºF) Relative Humidity Wind Chill (°F) Heat Index (°F) Pressure Precipitation (in)
Air Dwpt 6 hour altimeter (in) sea level (mb) 1 hr 3 hr 6 hr
Max. Min.
18 13:57 S 9 10.00 Partly Cloudy SCT120 106 61 23% 108 29.82 1009.5
18 12:57 SW 12 10.00 Partly Cloudy SCT130 106 59 21% 107 29.86 1010.8
18 11:57 S 13 G 21 10.00 Partly Cloudy SCT120 105.1 57.9 21% 105 29.88 1011.5
18 10:57 S 16 G 22 10.00 Partly Cloudy SCT120 102.9 57.9 104 84 23% 103 29.9 1012.0
18 09:57 S 20 10.00 Partly Cloudy SCT120 100 55.9 23% 99 29.9 1012.1
18 08:57 SE 14 10.00 Fair CLR 97 55.9 25% 95 29.91 1012.3
18 07:57 SE 7 10.00 Partly Cloudy SCT120 88 57.9 36% 87 29.87 1011.1
18 06:57 S 3 10.00 Partly Cloudy SCT120 84.9 55 36% 84 29.83 1009.8
18 05:57 S 5 10.00 Fair CLR 84 55.9 38% 83 29.81 1009.2
18 04:57 S 3 10.00 Fair CLR 86 54 93.9 86 33% 84 29.8 1008.7
18 03:57 S 3 10.00 Fair CLR 88 54 31% 86 29.79 1008.2
18 02:57 Calm 10.00 Fair CLR 87.1 57 36% 86 29.78 1008.1
18 01:57 S 5 10.00 Fair CLR 89.1 59 36% 88 29.79 1008.2
18 00:57 SW 6 10.00 Fair CLR 90 57.9 34% 89 29.79 1008.2
17 23:57 SW 7 10.00 Fair CLR 91 59 34% 90 29.79 1008.4
17 22:57 SE 7 10.00 Partly Cloudy SCT120 93.9 59 105.1 91.9 31% 93 29.79 1008.5
17 21:57 S 5 10.00 Partly Cloudy SCT120 93.9 60.1 32% 94 29.8 1008.5
17 20:57 S 6 10.00 Partly Cloudy SCT120 97 60.1 29% 97 29.78 1008.0
17 19:57 S 7 10.00 Partly Cloudy SCT120 100 60.1 27% 101 29.76 1007.4
17 18:57 S 12 10.00 Mostly Cloudy BKN120 104 57.9 22% 104 29.75 1006.9
17 17:57 S 8 10.00 Fair CLR 105.1 59 22% 106 29.74 1006.8
17 16:57 S 9 10.00 Fair CLR 104 60.1 105.1 98.1 24% 105 29.75 1007.0
17 15:57 SW 6 7.00 Mostly Cloudy BKN120 102.9 62.1 26% 105 29.77 1007.7
17 14:57 S 9 10.00 Mostly Cloudy BKN120 100 62.1 29% 102 29.8 1008.6
17 13:57 S 12 10.00 Mostly Cloudy BKN120 99 62.1 30% 100 29.82 1009.2
17 12:57 S 7 10.00 Mostly Cloudy BKN120 99 64.9 33% 102 29.84 1010.1
17 11:57 SW 10 10.00 Mostly Cloudy BKN120 99 63 31% 101 29.84 1010.0
17 10:57 S 7 7.00 Mostly Cloudy BKN120 99 63 99 87.1 31% 101 29.85 1010.5
17 09:57 W 3 10.00 Mostly Cloudy BKN120 95 62.1 34% 96 29.85 1010.3
17 08:57 SW 7 10.00 Mostly Cloudy BKN120 93 61 34% 93 29.83 1009.6
17 07:57 SE 6 10.00 Partly Cloudy SCT120 90 59 35% 89 29.84 1010.0
17 06:57 SE 12 10.00 Partly Cloudy SCT120 89.1 55.9 33% 87 29.84 1010.1
17 05:57 SE 14 10.00 Fair CLR 88 54 31% 86 29.83 1009.7
17 04:57 SE 18 G 28 10.00 Fair CLR 87.1 62.1 91.9 86 43% 88 29.81 1009.1
17 03:57 SE 15 10.00 Fair CLR 87.1 64.9 48% 89 29.78 1008.1
17 02:57 S 7 10.00 Fair CLR 86 66 51% 88 29.77 1007.8
17 01:57 S 3 10.00 Fair CLR 87.1 64.9 48% 89 29.77 1007.8
17 00:57 S 5 10.00 Fair CLR 90 61 38% 90 29.78 1008.0
16 23:57 SW 6 10.00 Fair CLR 91 61 37% 91 29.78 1007.9
16 22:57 SW 7 10.00 Fair CLR 91.9 62.1 105.1 91.9 37% 93 29.77 1007.7
16 21:57 S 8 7.00 A Few Clouds FEW110 FEW200 93 62.1 36% 94 29.76 1007.3
16 20:57 S 12 10.00 Fair CLR 96.1 64 35% 98 29.75 1006.9
16 19:57 S 9 10.00 A Few Clouds FEW110 FEW200 98.1 64 33% 101 29.74 1006.5
16 18:57 S 15 10.00 Fair CLR 102 64.9 30% 106 29.73 1006.1
16 17:57 S 13 10.00 Fair CLR 104 63 26% 107 29.72 1006.1
16 16:57 S 14 10.00 Partly Cloudy SCT150 105.1 64 107.1 100 26% 109 29.74 1006.5
16 15:57 S 15 G 24 10.00 Fair CLR 105.1 64 26% 109 29.76 1007.4
16 14:57 S 13 G 20 10.00 Partly Cloudy SCT150 105.1 66 28% 110 29.78 1008.0
16 13:57 SW 17 G 23 10.00 Partly Cloudy SCT150 106 64.9 26% 111 29.81 1008.9
16 12:57 S 14 10.00 Fair CLR 104 66 29% 109 29.84 1010.0
16 11:57 S 17 10.00 Fair CLR 102.9 62.1 26% 105 29.86 1010.7
16 10:57 S 17 G 25 7.00 Fair CLR 100 62.1 100 84.9 29% 102 29.87 1011.1
16 09:57 S 18 10.00 Partly Cloudy SCT120 98.1 63 32% 100 29.88 1011.3
16 08:57 S 15 10.00 Mostly Cloudy BKN120 93 66.9 42% 97 29.87 1011.2
16 07:57 S 8 10.00 Partly Cloudy SCT200 90 61 38% 90 29.85 1010.5
16 06:57 E 3 10.00 Partly Cloudy SCT200 89.1 60.1 38% 89 29.84 1009.9
16 05:57 S 6 10.00 Fair CLR 86 61 43% 86 29.81 1009.1
16 03:57 Calm 10.00 Fair CLR 84.9 64.9 51% 87 29.79 1008.3
16 02:57 S 9 10.00 Fair CLR 86 66.9 53% 89 29.79 1008.3
16 00:57 S 10 10.00 Fair CLR 88 64 45% 89 29.81 1008.9
15 22:57 S 13 10.00 Mostly Cloudy FEW110 BKN200 93 57.9 102 91.9 31% 92 29.8 1008.7
15 21:57 S 9 7.00 Mostly Cloudy FEW110 BKN200 93 62.1 36% 94 29.8 1008.6
15 20:57 S 12 10.00 Fair CLR 95 63 35% 96 29.78 1007.9
15 19:57 S 8 10.00 Mostly Cloudy FEW110 BKN200 98.1 64.9 34% 101 29.76 1007.3
15 18:57 S 7 10.00 Fair CLR 102 62.1 27% 104 29.75 1006.9
15 17:57 S 6 10.00 Fair CLR 102 63 28% 104 29.75 1007.0
15 15:57 W 7 7.00 Mostly Cloudy FEW110 BKN200 100 64.9 32% 103 29.79 1008.3
15 14:57 SW 6 7.00 Mostly Cloudy FEW110 BKN200 97 64 34% 99 29.82 1009.3
Date Time (mst) Wind (mph) Vis. (mi.) Weather Sky Cond. Air Dwpt Max. Min. Relative Humidity Wind Chill (°F) Heat Index (°F) altimeter (in) sea level (mb) 1 hr 3 hr 6 hr
6 hour
Temperature (ºF) Pressure Precipitation (in)